ION SCV Eminent Emmanuel

operational
NORAD ID: 62630 Int'l Des: 2025-009 Owner: DORBIT Country: I
LEOCIRCULARRETROGRADESSO

About ION SCV Eminent Emmanuel

Description loading...

Live Position

Loading 3D Globe...

Upcoming Passes

Altitude History

Altitude vs Time

uPlot chart will show altitude changes over time

Two-Line Element Set

1 62630U 25009X 25315.20494745 .00003464 00000-0 25327-3 0 9993
2 62630 97.5108 29.7742 0005860 144.6924 215.4692 15.04242685 45206
Epoch: Nov 11, 2025 • Age: 28 hours

Current Status

Altitude 571.0 km
Velocity 7.57 km/s
Sub-Earth Point -45.43°S, 15.63°E
Launch Date Jan 14, 2025
Age 0.8 years
Type other

Technical Details

Classification Payload
Mass 150.00 kg
Dry Mass 150.00 kg
Total Mass 220.00 kg
Length 0.40 m
Diameter 0.40 m
Span 0.40 m
Shape Box
Manufacturer DORBIT
Bus Type ION-SC
Phase Status In Orbit
Owner/State DORBIT/I

Large Constellations

Loading constellations...